| time (UTC) | temp C | wind direction | speed KPH | gust KPH | rain 1hr cm | rain 24hr cm | rain mn cm | humidity % | barometer mb |
| 20260505073027 | 15 | 178 | 4.8 | 12.9 | 0.00 | 0.00 | 0.00 | 70 | 1015.2 |
| 20260505072527 | 15 | 172 | 4.8 | 14.5 | 0.00 | 0.00 | 0.00 | 70 | 1015.2 |
| 20260505072027 | 15 | 190 | 4.8 | 11.3 | 0.00 | 0.00 | 0.00 | 69 | 1015.2 |
| 20260505071532 | 15 | 197 | 3.2 | 11.3 | 0.00 | 0.00 | 0.00 | 69 | 1015.1 |
| 20260505071027 | 15 | 180 | 6.4 | 12.9 | 0.00 | 0.00 | 0.00 | 68 | 1015.1 |
| 20260505070528 | 15 | 179 | 4.8 | 12.9 | 0.00 | 0.00 | 0.00 | 68 | 1015.1 |
| 20260505070024 | 15 | 184 | 4.8 | 12.9 | 0.00 | 0.00 | 0.00 | 69 | 1015.1 |
| 20260505065524 | 15 | 182 | 4.8 | 12.9 | 0.00 | 0.00 | 0.00 | 68 | 1015.1 |
| 20260505065025 | 15 | 177 | 6.4 | 14.5 | 0.00 | 0.00 | 0.00 | 68 | 1015.1 |
| 20260505064525 | 15 | 179 | 6.4 | 11.3 | 0.00 | 0.00 | 0.00 | 68 | 1015.1 |
| 20260505064025 | 15 | 180 | 4.8 | 14.5 | 0.00 | 0.00 | 0.00 | 67 | 1015.2 |
| 20260505063525 | 15 | 181 | 4.8 | 11.3 | 0.00 | 0.00 | 0.00 | 67 | 1015.2 |
| 20260505063022 | 16 | 177 | 6.4 | 14.5 | 0.00 | 0.00 | 0.00 | 67 | 1015.3 |
| 20260505062516 | 16 | 186 | 4.8 | 11.3 | 0.00 | 0.00 | 0.00 | 66 | 1015.3 |
| 20260505062016 | 16 | 182 | 4.8 | 11.3 | 0.00 | 0.00 | 0.00 | 66 | 1015.3 |
| 20260505061516 | 16 | 181 | 4.8 | 11.3 | 0.00 | 0.00 | 0.00 | 66 | 1015.3 |
| 20260505061016 | 16 | 183 | 4.8 | 8.0 | 0.00 | 0.00 | 0.00 | 66 | 1015.3 |
| 20260505060517 | 16 | 183 | 4.8 | 11.3 | 0.00 | 0.00 | 0.00 | 66 | 1015.3 |
| 20260505060016 | 16 | 178 | 4.8 | 11.3 | 0.00 | 0.00 | 0.00 | 65 | 1015.3 |
| 20260505055537 | 16 | 180 | 4.8 | 11.3 | 0.00 | 0.00 | 0.00 | 65 | 1015.3 |
| 20260505055016 | 16 | 176 | 6.4 | 14.5 | 0.00 | 0.00 | 0.00 | 65 | 1015.3 |
| 20260505054516 | 16 | 183 | 3.2 | 14.5 | 0.00 | 0.00 | 0.00 | 65 | 1015.3 |
| 20260505054017 | 16 | 180 | 4.8 | 11.3 | 0.00 | 0.00 | 0.00 | 65 | 1015.3 |
| 20260505053537 | 16 | 179 | 4.8 | 11.3 | 0.00 | 0.00 | 0.00 | 65 | 1015.3 |
| 20260505053017 | 16 | 175 | 6.4 | 11.3 | 0.00 | 0.00 | 0.00 | 64 | 1015.4 |
| 20260505052517 | 16 | 182 | 6.4 | 11.3 | 0.00 | 0.00 | 0.00 | 64 | 1015.4 |
| 20260505052037 | 16 | 184 | 3.2 | 11.3 | 0.00 | 0.00 | 0.00 | 64 | 1015.4 |
| 20260505051517 | 16 | 190 | 4.8 | 9.7 | 0.00 | 0.00 | 0.00 | 63 | 1015.5 |
| 20260505051018 | 16 | 193 | 4.8 | 11.3 | 0.00 | 0.00 | 0.00 | 64 | 1015.5 |
| 20260505050517 | 17 | 179 | 4.8 | 11.3 | 0.00 | 0.00 | 0.00 | 63 | 1015.5 |
| 20260505041518 | 17 | 178 | 6.4 | 17.7 | 0.00 | 0.00 | 0.00 | 60 | 1015.6 |
| 20260505041018 | 17 | 188 | 6.4 | 12.9 | 0.00 | 0.00 | 0.00 | 59 | 1015.6 |
| 20260505040518 | 17 | 183 | 4.8 | 12.9 | 0.00 | 0.00 | 0.00 | 59 | 1015.6 |
| 20260505040015 | 17 | 191 | 6.4 | 16.1 | 0.00 | 0.00 | 0.00 | 58 | 1015.6 |
| 20260505035515 | 17 | 183 | 6.4 | 16.1 | 0.00 | 0.00 | 0.00 | 57 | 1015.6 |
| 20260505035015 | 17 | 181 | 8.0 | 14.5 | 0.00 | 0.00 | 0.00 | 56 | 1015.5 |
| 20260505034515 | 17 | 180 | 6.4 | 14.5 | 0.00 | 0.00 | 0.00 | 56 | 1015.5 |
| 20260505034015 | 17 | 183 | 4.8 | 9.7 | 0.00 | 0.00 | 0.00 | 56 | 1015.5 |
| 20260505033516 | 17 | 190 | 3.2 | 11.3 | 0.00 | 0.00 | 0.00 | 55 | 1015.6 |
| 20260505033016 | 17 | 188 | 4.8 | 11.3 | 0.00 | 0.00 | 0.00 | 55 | 1015.6 |
| 20260505032515 | 17 | 179 | 3.2 | 6.4 | 0.00 | 0.00 | 0.00 | 54 | 1015.5 |
| 20260505032016 | 17 | 179 | 3.2 | 9.7 | 0.00 | 0.00 | 0.00 | 54 | 1015.5 |
| 20260505031536 | 17 | 186 | 3.2 | 8.0 | 0.00 | 0.00 | 0.00 | 53 | 1015.5 |
| 20260505031018 | 18 | 183 | 3.2 | 8.0 | 0.00 | 0.00 | 0.00 | 53 | 1015.5 |
| 20260505030516 | 18 | 179 | 3.2 | 9.7 | 0.00 | 0.00 | 0.00 | 52 | 1015.5 |
| 20260505030016 | 18 | 182 | 4.8 | 9.7 | 0.00 | 0.00 | 0.00 | 52 | 1015.5 |
| 20260505025516 | 18 | 181 | 3.2 | 9.7 | 0.00 | 0.00 | 0.00 | 52 | 1015.5 |
| 20260505025016 | 18 | 180 | 3.2 | 8.0 | 0.00 | 0.00 | 0.00 | 52 | 1015.5 |
| 20260505024517 | 18 | 177 | 4.8 | 9.7 | 0.00 | 0.00 | 0.00 | 51 | 1015.5 |
| 20260505024016 | 18 | 180 | 3.2 | 9.7 | 0.00 | 0.00 | 0.00 | 51 | 1015.4 |
| 20260505023516 | 18 | 182 | 3.2 | 6.4 | 0.00 | 0.00 | 0.00 | 51 | 1015.4 |
| 20260505023017 | 18 | 185 | 3.2 | 6.4 | 0.00 | 0.00 | 0.00 | 50 | 1015.4 |
| 20260505022516 | 18 | 187 | 4.8 | 8.0 | 0.00 | 0.00 | 0.00 | 50 | 1015.3 |
| 20260505022017 | 18 | 188 | 4.8 | 8.0 | 0.00 | 0.00 | 0.00 | 49 | 1015.3 |
| 20260505021517 | 18 | 182 | 4.8 | 9.7 | 0.00 | 0.00 | 0.00 | 49 | 1015.2 |
| 20260505021017 | 18 | 181 | 3.2 | 8.0 | 0.00 | 0.00 | 0.00 | 48 | 1015.2 |
| 20260505020517 | 19 | 186 | 3.2 | 8.0 | 0.00 | 0.00 | 0.00 | 48 | 1015.2 |
| 20260505020017 | 19 | 182 | 4.8 | 8.0 | 0.00 | 0.00 | 0.00 | 47 | 1015.2 |
| 20260505015517 | 19 | 190 | 4.8 | 8.0 | 0.00 | 0.00 | 0.00 | 46 | 1015.1 |
| 20260505015017 | 18 | 185 | 4.8 | 9.7 | 0.00 | 0.00 | 0.00 | 46 | 1015.0 |
| 20260505014537 | 18 | 183 | 3.2 | 8.0 | 0.00 | 0.00 | 0.00 | 45 | 1015.0 |
| 20260505014017 | 18 | 184 | 4.8 | 9.7 | 0.00 | 0.00 | 0.00 | 44 | 1015.0 |
| 20260505013517 | 18 | 183 | 1.6 | 6.4 | 0.00 | 0.00 | 0.00 | 44 | 1014.9 |
| 20260505013017 | 18 | 199 | 0.0 | 4.8 | 0.00 | 0.00 | 0.00 | 43 | 1014.8 |
| 20260505012517 | 18 | 185 | 1.6 | 4.8 | 0.00 | 0.00 | 0.00 | 42 | 1014.7 |
| 20260505012018 | 18 | 188 | 1.6 | 4.8 | 0.00 | 0.00 | 0.00 | 43 | 1014.7 |
| 20260505011517 | 18 | 186 | 1.6 | 6.4 | 0.00 | 0.00 | 0.00 | 43 | 1014.6 |
| 20260505011017 | 18 | 176 | 0.0 | 6.4 | 0.00 | 0.00 | 0.00 | 45 | 1014.6 |
| 20260505010537 | 18 | 175 | 0.0 | 3.2 | 0.00 | 0.00 | 0.00 | 44 | 1014.5 |
| 20260505010017 | 18 | 188 | 0.0 | 3.2 | 0.00 | 0.00 | 0.00 | 44 | 1014.4 |
| 20260505005518 | 19 | 180 | 0.0 | 3.2 | 0.00 | 0.00 | 0.00 | 43 | 1014.4 |
| 20260505005018 | 20 | 189 | 1.6 | 4.8 | 0.00 | 0.00 | 0.00 | 42 | 1014.4 |
| 20260505004517 | 20 | 192 | 1.6 | 4.8 | 0.00 | 0.00 | 0.00 | 41 | 1014.3 |
| 20260505004018 | 20 | 195 | 1.6 | 4.8 | 0.00 | 0.00 | 0.00 | 40 | 1014.2 |
| 20260505003538 | 21 | 206 | 1.6 | 4.8 | 0.00 | 0.00 | 0.00 | 39 | 1014.2 |
| 20260505003015 | 21 | 199 | 1.6 | 4.8 | 0.00 | 0.00 | 0.00 | 38 | 1014.1 |
| 20260505002518 | 21 | 207 | 1.6 | 4.8 | 0.00 | 0.00 | 0.00 | 37 | 1014.1 |
| 20260505002015 | 22 | 185 | 3.2 | 11.3 | 0.00 | 0.00 | 0.00 | 37 | 1014.1 |
| 20260505001515 | 22 | 186 | 4.8 | 8.0 | 0.00 | 0.00 | 0.00 | 37 | 1014.1 |
| 20260505001016 | 22 | 186 | 3.2 | 8.0 | 0.00 | 0.00 | 0.00 | 36 | 1014.2 |
| 20260505000516 | 22 | 185 | 4.8 | 8.0 | 0.00 | 0.00 | 0.00 | 36 | 1014.1 |
| 20260505000016 | 22 | 189 | 3.2 | 11.3 | 0.00 | 0.00 | 0.00 | 36 | 1014.0 |
| 20260504235535 | 22 | 183 | 4.8 | 11.3 | 0.00 | 0.00 | 0.00 | 36 | 1014.0 |
| 20260504235016 | 23 | 186 | 4.8 | 11.3 | 0.00 | 0.00 | 0.00 | 36 | 1013.9 |
| 20260504234516 | 23 | 185 | 6.4 | 14.5 | 0.00 | 0.00 | 0.00 | 36 | 1013.9 |
| 20260504234036 | 23 | 186 | 4.8 | 9.7 | 0.00 | 0.00 | 0.00 | 36 | 1013.8 |
| 20260504233516 | 23 | 191 | 4.8 | 9.7 | 0.00 | 0.00 | 0.00 | 36 | 1013.7 |
| 20260504233016 | 23 | 178 | 8.0 | 17.7 | 0.00 | 0.00 | 0.00 | 35 | 1013.7 |
| 20260504232516 | 23 | 194 | 4.8 | 16.1 | 0.00 | 0.00 | 0.00 | 36 | 1013.6 |
| 20260504232017 | 24 | 186 | 6.4 | 16.1 | 0.00 | 0.00 | 0.00 | 37 | 1013.6 |
| 20260504231516 | 24 | 187 | 4.8 | 11.3 | 0.00 | 0.00 | 0.00 | 37 | 1013.6 |
| 20260504231016 | 25 | 196 | 6.4 | 12.9 | 0.00 | 0.00 | 0.00 | 36 | 1013.6 |
| 20260504230516 | 25 | 200 | 4.8 | 11.3 | 0.00 | 0.00 | 0.00 | 35 | 1013.6 |
| 20260504230017 | 25 | 194 | 8.0 | 17.7 | 0.00 | 0.00 | 0.00 | 34 | 1013.5 |
| 20260504225517 | 25 | 196 | 4.8 | 9.7 | 0.00 | 0.00 | 0.00 | 33 | 1013.5 |
| 20260504225017 | 25 | 195 | 6.4 | 12.9 | 0.00 | 0.00 | 0.00 | 32 | 1013.5 |
| 20260504224518 | 26 | 189 | 4.8 | 14.5 | 0.00 | 0.00 | 0.00 | 32 | 1013.5 |
| 20260504224016 | 26 | 191 | 6.4 | 16.1 | 0.00 | 0.00 | 0.00 | 31 | 1013.5 |
| 20260504223517 | 26 | 193 | 4.8 | 11.3 | 0.00 | 0.00 | 0.00 | 32 | 1013.5 |
| 20260504223017 | 26 | 186 | 8.0 | 14.5 | 0.00 | 0.00 | 0.00 | 32 | 1013.6 |
| 20260504222517 | 26 | 179 | 8.0 | 14.5 | 0.00 | 0.00 | 0.00 | 33 | 1013.6 |
| 20260504222017 | 26 | 190 | 8.0 | 14.5 | 0.00 | 0.00 | 0.00 | 33 | 1013.6 |
| 20260504221538 | 26 | 184 | 6.4 | 14.5 | 0.00 | 0.00 | 0.00 | 33 | 1013.6 |
| 20260504221017 | 26 | 181 | 6.4 | 17.7 | 0.00 | 0.00 | 0.00 | 31 | 1013.6 |
| 20260504220517 | 26 | 187 | 4.8 | 11.3 | 0.00 | 0.00 | 0.00 | 32 | 1013.6 |
| 20260504220017 | 26 | 193 | 8.0 | 12.9 | 0.00 | 0.00 | 0.00 | 32 | 1013.6 |
| 20260504215517 | 26 | 183 | 8.0 | 16.1 | 0.00 | 0.00 | 0.00 | 31 | 1013.6 |
| 20260504215018 | 26 | 186 | 8.0 | 17.7 | 0.00 | 0.00 | 0.00 | 30 | 1013.6 |
| 20260504214518 | 27 | 193 | 6.4 | 17.7 | 0.00 | 0.00 | 0.00 | 30 | 1013.6 |
| 20260504214018 | 27 | 212 | 3.2 | 11.3 | 0.00 | 0.00 | 0.00 | 30 | 1013.6 |
| 20260504213518 | 26 | 191 | 4.8 | 11.3 | 0.00 | 0.00 | 0.00 | 30 | 1013.6 |
| 20260504213018 | 26 | 184 | 6.4 | 14.5 | 0.00 | 0.00 | 0.00 | 30 | 1013.7 |
| 20260504212537 | 26 | 182 | 8.0 | 19.3 | 0.00 | 0.00 | 0.00 | 30 | 1013.7 |
| 20260504212018 | 26 | 191 | 8.0 | 12.9 | 0.00 | 0.00 | 0.00 | 29 | 1013.6 |
| 20260504211537 | 26 | 185 | 8.0 | 16.1 | 0.00 | 0.00 | 0.00 | 30 | 1013.6 |
| 20260504211035 | 26 | 182 | 8.0 | 16.1 | 0.00 | 0.00 | 0.00 | 30 | 1013.6 |
| 20260504210515 | 26 | 185 | 8.0 | 17.7 | 0.00 | 0.00 | 0.00 | 30 | 1013.7 |
| 20260504210020 | 26 | 185 | 6.4 | 16.1 | 0.00 | 0.00 | 0.00 | 29 | 1013.7 |
| 20260504205515 | 26 | 194 | 6.4 | 17.7 | 0.00 | 0.00 | 0.00 | 29 | 1013.7 |
| 20260504205016 | 26 | 189 | 6.4 | 14.5 | 0.00 | 0.00 | 0.00 | 31 | 1013.8 |
| 20260504204516 | 26 | 192 | 6.4 | 17.7 | 0.00 | 0.00 | 0.00 | 32 | 1013.8 |
| 20260504204016 | 26 | 187 | 6.4 | 16.1 | 0.00 | 0.00 | 0.00 | 32 | 1014.0 |
| 20260504203516 | 26 | 209 | 4.8 | 11.3 | 0.00 | 0.00 | 0.00 | 32 | 1014.0 |
| 20260504203016 | 26 | 195 | 4.8 | 14.5 | 0.00 | 0.00 | 0.00 | 31 | 1014.1 |
| 20260504202517 | 26 | 194 | 6.4 | 12.9 | 0.00 | 0.00 | 0.00 | 31 | 1014.2 |
| 20260504202016 | 26 | 193 | 6.4 | 19.3 | 0.00 | 0.00 | 0.00 | 31 | 1014.2 |
| 20260504201516 | 27 | 192 | 4.8 | 14.5 | 0.00 | 0.00 | 0.00 | 32 | 1014.2 |
| 20260504201016 | 26 | 195 | 4.8 | 9.7 | 0.00 | 0.00 | 0.00 | 33 | 1014.2 |
| 20260504200516 | 26 | 188 | 6.4 | 16.1 | 0.00 | 0.00 | 0.00 | 31 | 1014.3 |
| 20260504200016 | 26 | 235 | 3.2 | 6.4 | 0.00 | 0.00 | 0.00 | 31 | 1014.3 |
| 20260504195516 | 26 | 194 | 6.4 | 14.5 | 0.00 | 0.00 | 0.00 | 31 | 1014.3 |
| 20260504195016 | 26 | 240 | 6.4 | 16.1 | 0.00 | 0.00 | 0.00 | 30 | 1014.3 |
| 20260504194516 | 26 | 205 | 6.4 | 12.9 | 0.00 | 0.00 | 0.00 | 30 | 1014.4 |
| 20260504194018 | 26 | 196 | 6.4 | 12.9 | 0.00 | 0.00 | 0.00 | 31 | 1014.4 |
| 20260504193517 | 26 | 186 | 4.8 | 14.5 | 0.00 | 0.00 | 0.00 | 32 | 1014.5 |
| 20260504193017 | 26 | 191 | 4.8 | 12.9 | 0.00 | 0.00 | 0.00 | 32 | 1014.5 |
| 20260504192516 | 25 | 277 | 3.2 | 14.5 | 0.00 | 0.00 | 0.00 | 32 | 1014.6 |
| 20260504192017 | 25 | 198 | 6.4 | 12.9 | 0.00 | 0.00 | 0.00 | 34 | 1014.7 |
| 20260504191517 | 25 | 196 | 6.4 | 19.3 | 0.00 | 0.00 | 0.00 | 34 | 1014.8 |
| 20260504191017 | 25 | 199 | 4.8 | 14.5 | 0.00 | 0.00 | 0.00 | 34 | 1014.9 |
| 20260504190519 | 25 | 201 | 4.8 | 11.3 | 0.00 | 0.00 | 0.00 | 34 | 1015.0 |
| 20260504190017 | 25 | 193 | 6.4 | 14.5 | 0.00 | 0.00 | 0.00 | 33 | 1015.0 |
| 20260504185517 | 26 | 189 | 4.8 | 17.7 | 0.00 | 0.00 | 0.00 | 33 | 1015.1 |
| 20260504185017 | 26 | 242 | 3.2 | 9.7 | 0.00 | 0.00 | 0.00 | 34 | 1015.1 |
| 20260504184517 | 25 | 187 | 3.2 | 11.3 | 0.00 | 0.00 | 0.00 | 35 | 1015.2 |
| 20260504184017 | 25 | 196 | 4.8 | 12.9 | 0.00 | 0.00 | 0.00 | 34 | 1015.3 |
| 20260504183518 | 25 | 275 | 4.8 | 8.0 | 0.00 | 0.00 | 0.00 | 34 | 1015.3 |
| 20260504183037 | 25 | 214 | 3.2 | 11.3 | 0.00 | 0.00 | 0.00 | 33 | 1015.3 |
| 20260504182518 | 25 | 227 | 3.2 | 12.9 | 0.00 | 0.00 | 0.00 | 35 | 1015.4 |
| 20260504182018 | 25 | 184 | 3.2 | 11.3 | 0.00 | 0.00 | 0.00 | 34 | 1015.5 |
| 20260504181518 | 25 | 275 | 1.6 | 9.7 | 0.00 | 0.00 | 0.00 | 35 | 1015.6 |
| 20260504181038 | 25 | 215 | 4.8 | 12.9 | 0.00 | 0.00 | 0.00 | 34 | 1015.6 |
| 20260504180518 | 25 | 208 | 3.2 | 14.5 | 0.00 | 0.00 | 0.00 | 35 | 1015.7 |
| 20260504180015 | 25 | 234 | 3.2 | 16.1 | 0.00 | 0.00 | 0.00 | 35 | 1015.7 |
| 20260504175538 | 25 | 236 | 3.2 | 8.0 | 0.00 | 0.00 | 0.00 | 35 | 1015.7 |
| 20260504175038 | 24 | 188 | 3.2 | 9.7 | 0.00 | 0.00 | 0.00 | 35 | 1015.8 |
| 20260504174535 | 23 | 197 | 3.2 | 14.5 | 0.00 | 0.00 | 0.00 | 35 | 1015.8 |
| 20260504174015 | 23 | 189 | 6.4 | 11.3 | 0.00 | 0.00 | 0.00 | 36 | 1015.9 |
| 20260504173521 | 23 | 182 | 6.4 | 14.5 | 0.00 | 0.00 | 0.00 | 36 | 1015.9 |
| 20260504173018 | 23 | 223 | 4.8 | 12.9 | 0.00 | 0.00 | 0.00 | 36 | 1015.9 |
| 20260504172516 | 23 | 185 | 6.4 | 12.9 | 0.00 | 0.00 | 0.00 | 36 | 1015.9 |
| 20260504172016 | 23 | 191 | 6.4 | 11.3 | 0.00 | 0.00 | 0.00 | 36 | 1015.9 |
| 20260504171516 | 23 | 182 | 3.2 | 14.5 | 0.00 | 0.00 | 0.00 | 37 | 1016.0 |
| 20260504171016 | 23 | 203 | 3.2 | 11.3 | 0.00 | 0.00 | 0.00 | 38 | 1016.1 |
| 20260504170516 | 23 | 246 | 1.6 | 4.8 | 0.00 | 0.00 | 0.00 | 38 | 1016.2 |
| 20260504151025 | 21 | 276 | 3.2 | 8.0 | 0.00 | 0.00 | 0.00 | 45 | 1017.3 |
| 20260504150518 | 20 | 198 | 1.6 | 6.4 | 0.00 | 0.00 | 0.00 | 47 | 1017.3 |
| 20260504141018 | 18 | 198 | 1.6 | 8.0 | 0.00 | 0.00 | 0.00 | 58 | 1017.3 |
| 20260504140518 | 18 | 176 | 4.8 | 8.0 | 0.00 | 0.00 | 0.00 | 59 | 1017.3 |
| 20260504130536 | 14 | 288 | 1.6 | 6.4 | 0.00 | 0.00 | 0.00 | 70 | 1017.3 |
| 20260504110521 | 8 | 0.0 | 0.0 | 0.00 | 0.00 | 0.00 | 91 | 1017.0 | |
| 20260504100541 | 8 | 179 | 0.0 | 3.2 | 0.00 | 0.00 | 0.00 | 88 | 1016.9 |
| 20260504081523 | 7 | 0.0 | 0.0 | 0.00 | 0.00 | 0.00 | 91 | 1016.6 | |
| 20260504081023 | 7 | 0.0 | 0.0 | 0.00 | 0.00 | 0.00 | 91 | 1016.5 | |
| 20260504080523 | 7 | 0.0 | 0.0 | 0.00 | 0.00 | 0.00 | 90 | 1016.5 |